sat.trackr.live / text

‹ back to catalog

EXPRESS AMU-7

NORAD 50001 · 2021-123A

PAYLOAD ACTIVE UNKNOWN

§ Identity

Operator
Country
CIS
Launch date
2021-12-13
Launch site
TYMSC
Launch vehicle
Mass (kg)
RCS (m²)

Purposes: comms

External: N2YO · Heavens-Above · Gunter

§ Orbital elements

Epoch: 2026-05-25T04:25:58.297728Z

Period
1,436.13 min
Inclination
0.0203°
Eccentricity
0.0000185
Mean motion
1.00269398 rev/d
Perigee alt
35,786.5 km
Apogee alt
35,788.0 km
Semi-major
42,165.4 km
B*
0.0000e+0
RAAN
299.1023°
Arg perigee
168.2016°
Mean anomaly
346.9694°
Rev number
1,631

§ Raw data

EXPRESS AMU-71 50001U 21123A   26145.18470252  .00000000  00000+0  00000+0 0  99902 50001   0.0203 299.1023 0000185 168.2016 346.9694  1.00269398 16317

JSON: /api/v1/satellites/50001 · /tle

For live sub-satellite position, see the globe view (requires WebGL).

§ Visibility from observer

Set your observer location to see the next 7 days of passes ≥ 10°. The values pass through the URL so the page stays shareable.

No JS? Fill the form by hand. The geolocation button needs JavaScript.